| time (UTC) | temp F | wind direction | speed MPH | gust MPH | rain 1hr in | rain 24hr in | rain mn in | humidity % | barometer mb |
| 20260505013054 | 36 | 0 | 0.0 | 0.0 | 0.01 | 0.04 | 0.04 | 84 | 1016.5 |
| 20260505011602 | 37 | 0 | 0.0 | 3.0 | 0.00 | 0.03 | 0.03 | 84 | 1016.2 |
| 20260505010052 | 38 | 80 | 1.0 | 4.0 | 0.00 | 0.03 | 0.03 | 81 | 1016.1 |
| 20260505004555 | 39 | 85 | 1.0 | 2.0 | 0.00 | 0.03 | 0.03 | 78 | 1016.2 |
| 20260505003108 | 40 | 101 | 0.0 | 8.0 | 0.00 | 0.03 | 0.03 | 76 | 1016.3 |
| 20260505001558 | 42 | 43 | 0.0 | 2.0 | 0.01 | 0.03 | 0.03 | 66 | 1015.8 |
| 20260505000115 | 43 | 242 | 0.0 | 3.0 | 0.01 | 0.03 | 0.03 | 64 | 1016.0 |
| 20260504234554 | 44 | 215 | 1.0 | 3.0 | 0.03 | 0.03 | 0.03 | 66 | 1016.1 |
| 20260504233107 | 42 | 122 | 2.0 | 5.0 | 0.03 | 0.03 | 0.03 | 70 | 1016.3 |
| 20260504231558 | 44 | 133 | 3.0 | 7.0 | 0.02 | 0.02 | 0.02 | 65 | 1016.0 |
| 20260504230056 | 44 | 120 | 2.0 | 9.0 | 0.02 | 0.02 | 0.02 | 62 | 1015.7 |
| 20260504224601 | 42 | 118 | 0.0 | 2.0 | 0.00 | 0.00 | 0.00 | 76 | 1015.8 |
| 20260504223110 | 40 | 91 | 0.0 | 1.0 | 0.00 | 0.00 | 0.00 | 78 | 1015.8 |
| 20260504221550 | 39 | 0 | 0.0 | 1.0 | 0.00 | 0.00 | 0.00 | 78 | 1016.4 |
| 20260504220054 | 40 | 0 | 0.0 | 4.0 | 0.00 | 0.00 | 0.00 | 71 | 1016.3 |
| 20260504214551 | 43 | 0 | 1.0 | 7.0 | 0.00 | 0.00 | 0.00 | 56 | 1015.8 |
| 20260504213102 | 46 | 46 | 4.0 | 10.0 | 0.00 | 0.00 | 0.00 | 51 | 1015.6 |
| 20260504211553 | 48 | 148 | 5.0 | 10.0 | 0.00 | 0.00 | 0.00 | 45 | 1015.8 |
| 20260504210057 | 50 | 311 | 0.0 | 4.0 | 0.00 | 0.00 | 0.00 | 43 | 1015.8 |
| 20260504204554 | 50 | 124 | 1.0 | 11.0 | 0.00 | 0.00 | 0.00 | 37 | 1015.9 |
| 20260504203106 | 48 | 104 | 1.0 | 6.0 | 0.00 | 0.00 | 0.00 | 38 | 1016.0 |
| 20260504201557 | 46 | 205 | 1.0 | 8.0 | 0.00 | 0.00 | 0.00 | 52 | 1016.2 |
| 20260504194552 | 49 | 240 | 1.0 | 14.0 | 0.00 | 0.00 | 0.00 | 44 | 1016.5 |
| 20260504193054 | 53 | 174 | 5.0 | 14.0 | 0.00 | 0.00 | 0.00 | 38 | 1016.5 |
| 20260504191557 | 52 | 219 | 5.0 | 15.0 | 0.00 | 0.00 | 0.00 | 37 | 1016.5 |
| 20260504190053 | 51 | 255 | 3.0 | 15.0 | 0.00 | 0.00 | 0.00 | 39 | 1016.4 |
| 20260504184558 | 51 | 192 | 5.0 | 11.0 | 0.00 | 0.00 | 0.00 | 39 | 1016.8 |
| 20260504183053 | 50 | 25 | 2.0 | 7.0 | 0.00 | 0.00 | 0.00 | 41 | 1016.8 |
| 20260504181549 | 48 | 124 | 2.0 | 7.0 | 0.00 | 0.00 | 0.00 | 46 | 1017.0 |
| 20260504180051 | 46 | 224 | 1.0 | 7.0 | 0.00 | 0.00 | 0.00 | 50 | 1017.4 |
| 20260504174554 | 45 | 115 | 1.0 | 10.0 | 0.00 | 0.00 | 0.00 | 50 | 1017.5 |
| 20260504173050 | 44 | 131 | 1.0 | 13.0 | 0.00 | 0.00 | 0.00 | 50 | 1017.4 |
| 20260504171554 | 44 | 288 | 3.0 | 10.0 | 0.00 | 0.00 | 0.00 | 50 | 1017.1 |
| 20260504081553 | 39 | 268 | 1.0 | 3.0 | 0.00 | 0.00 | 0.00 | 38 | 1018.5 |
| 20260504044603 | 40 | 283 | 0.0 | 3.0 | 0.00 | 0.00 | 0.00 | 41 | 1020.2 |
| 20260504043055 | 40 | 281 | 0.0 | 4.0 | 0.00 | 0.00 | 0.00 | 42 | 1020.2 |
| 20260504041554 | 39 | 269 | 0.0 | 2.0 | 0.00 | 0.00 | 0.00 | 43 | 1020.2 |
| 20260504040107 | 40 | 280 | 0.0 | 1.0 | 0.00 | 0.00 | 0.00 | 43 | 1020.3 |
| 20260504034615 | 40 | 284 | 0.0 | 2.0 | 0.00 | 0.00 | 0.00 | 44 | 1020.3 |
| 20260504033055 | 41 | 280 | 0.0 | 2.0 | 0.00 | 0.00 | 0.00 | 44 | 1020.2 |
| 20260504031555 | 40 | 270 | 0.0 | 1.0 | 0.00 | 0.00 | 0.00 | 46 | 1020.4 |
| 20260504030120 | 40 | 0 | 0.0 | 1.0 | 0.00 | 0.00 | 0.00 | 47 | 1020.2 |
| 20260504024559 | 41 | 243 | 0.0 | 1.0 | 0.00 | 0.00 | 0.00 | 47 | 1020.2 |
| 20260504023054 | 43 | 0 | 1.0 | 6.0 | 0.00 | 0.00 | 0.00 | 43 | 1020.2 |
| 20260504021557 | 43 | 240 | 0.0 | 2.0 | 0.00 | 0.00 | 0.00 | 45 | 1020.2 |
| 20260504020107 | 43 | 203 | 0.0 | 5.0 | 0.00 | 0.00 | 0.00 | 44 | 1020.1 |
| 20260504014600 | 43 | 207 | 0.0 | 2.0 | 0.00 | 0.00 | 0.00 | 45 | 1020.3 |